Overview Statistics Trail Chart Weather Telemetry Raw packets
 

This is the latest recevied weather packets stored in our database for station/object W5CMS-13. If no packets are shown the sender has not sent any weather packets the latest 10 day(s).

<< 4 5 6 7 8 9 10 >>
Time Temp. Humidity Pressure Rain* Wind** Luminosity Snow
1788534617 29.44° C 79% 1014.1 hPa 0 mm - - -
1788534017 28.89° C 81% 1014.2 hPa 0 mm - - -
1788533417 28.89° C 82% 1014.2 hPa 0 mm - - -
1788532817 28.33° C 83% 1014.2 hPa 0 mm - - -
1788532217 27.78° C 85% 1014.2 hPa 0 mm - - -
1788531617 27.78° C 86% 1014.1 hPa 0 mm - - -
1788531017 27.22° C 87% 1014.2 hPa 0 mm - - -
1788530418 27.22° C 88% 1014.2 hPa 0 mm - - -
1788529817 26.67° C 89% 1014.1 hPa 0 mm - - -
1788529217 26.11° C 90% 1013.9 hPa 0 mm - - -
1788528617 26.11° C 91% 1013.8 hPa 0 mm - - -
1788528017 25.56° C 91% 1013.7 hPa 0 mm - - -
1788527417 25.56° C 92% 1013.5 hPa 0 mm - - -
1788526817 25° C 93% 1013.4 hPa 0 mm - - -
1788526217 25° C 93% 1013.4 hPa 0 mm - - -
1788525617 24.44° C 93% 1013.3 hPa 0 mm - - -
1788525017 24.44° C 93% 1013.2 hPa 0 mm - - -
1788524420 24.44° C 92% 1013.2 hPa 0 mm - - -
1788523817 24.44° C 92% 1013.2 hPa 0 mm - - -
1788523217 24.44° C 91% 1013.1 hPa 0 mm - - -
1788522617 24.44° C 91% 1013.1 hPa 0 mm - - -
1788522017 24.44° C 91% 1013.1 hPa 0 mm - - -
1788521417 24.44° C 90% 1013 hPa 0 mm - - -
1788520817 24.44° C 90% 1012.9 hPa 0 mm - - -
1788520217 25° C 89% 1013.1 hPa 0 mm - - -

* Rain latest hour (hover to see other rain measurements)
** Current wind speed in m/s (hover to see current wind gust speed)